Showing default

INMARSAT GX5, 44801

Orbit data source: Space-Track

INMARSAT GX5, 44801 is a payload satellite owned by INMARSAT-Ltd (UK) in GEO that was launched on Tue, 26 Nov 2019 UTC via an ARIANE 5ECA launch vehicle from the French Guiana (FRGUI). Payload-class satellites include a variety of spacecraft equipped with specific instruments for various scientific and technological missions. These include communications satellites like Starlink; space stations such as the ISS; scientific satellites like the Hubble; Earth observation satellites from companies like Planet Labs, Umbra, and HawkEye 360; GPS; miniature CubeSats for education and research; and military/defense satellites.

Not visible in the next 10 days
Identifier
44801, 2019-080B
Orbit
GEO
Country
Flag of IMIM
Related business
Manufacturer
Thales Alenia
Mission
Operational Commercial Communications
Bus & Motor
SPACEBUS 4000B2, S400
Mass
~4,007 kg wet, ~2,200 kg dry
Launch date (UTC)
2019-11-26 (6 years ago)
Launch vehicle
ARIANE 5ECA
Launch site
French Guiana (FRGUI)
Object type
Payload
Rocket body
Debris
Shape & HBR
Box + 2 Pan, Unknown HBR
Radar Cross Section
39.423 m², Large (>1 m²)

Expand to show TLE details & history
Last TLE update: 11 hours ago

TLE from 11 hours ago
0 INMARSAT GX5
1 44801U 19080B   26130.11503066  .00000084  00000-0  00000+0 0  9990
2 44801   0.0421   5.2230 0002462  44.4217 230.7210  1.00270616  6402
Epoch: 2026-05-10T02:45Z
TLE epoch observation values (Epoch: 2026-05-10T02:45:38.649Z)
Latitude
-0.03575°
Longitude
11.0004°
Altitude
35,793.016 km
Speed
3.074 km/s
True Right ascension
18h 41m 20s
True Declination
0° 02' 09"
Sunlit
Object was in daylight at epoch
Visualization orbit readout
Latitude
Unknown
Longitude
Unknown
Altitude
Unknown
Speed
Unknown
Apparent Right ascension
Unknown
Apparent Declination
Unknown
Sunlit
N/A
Visualization observer readout
Local Sidereal Time
21:34:55
Azimuth
Unknown
Elevation
Unknown
Doppler factor
Unknown
Orbital elements
Apogee altitude
35,798.374 km
Perigee altitude
35,777.612 km
Semi-major axis
42,166.13 km
Eccentricity
0.00025
Inclination
0.0421°
RAAN
5.223°
Arg. of periapsis
44.4217°
True anomaly
230.69917°
Mean anomaly
230.721°
Eccentric anomaly
230.71008°
Mean motion
0.25067 °/min
Orbital period
1,436.17 mins
BSTAR
0
Loading maneuver chart data...
Computing Atmospheric mass density...
Loading historical data...
Loading historical data...
Loading historical data...
Loading historical data...
Loading historical data...
Loading historical data...
Loading historical data...
Other satellites on launch #80 in the year 2019 (2019-11-26 UTC)

Documentation

Showing up to 5 results
|